User: anonymous   Login
Location: Le Rocchette
(44.3500°N, 7.8333°E)
Time: 14:26:21
(UTC+00:00)
Language:

Centaur D AC-28 - Orbit

View from above orbital plane
View from above orbital plane
View from above satellite
View from above satellite

Ground track
Ground track

The orbit data is extracted from the following two-line orbital elements,

1  5816U 72003B   20024.05472056 -.00000132 +00000-0 +10270-2 0  9998
2  5816 028.5585 356.7109 7195095 104.1476 355.6077 02.20875701386715
Epoch (UTC): 24 January 2020 01:18:47
Eccentricity: 0.7195095
inclination: 28.5585°
perigee height: 608 km
apogee height: 36447 km
right ascension of ascending node: 356.7109°
argument of perigee: 104.1476°
revolutions per day: 2.20875701
mean anomaly at epoch: 355.6077°
orbit number at epoch: 38671

The dashed part of the orbit path shows where the satellite is in the earth's shadow,  

DLR